GFSNE_sfc_temp_120.txt.gz
Temp
59 60 60 60 59 60 60 60 57 54 56 60 56 58 56 57 57 56 56 55 57 58 59 60 60 59 58 58 57 56 56 55 55 56 56 57 57 58
59 59 60 60 61 60 59 59 58 56 54 57 56 55 54 53 54 56 55 53 55 57 58 57 56 56 56 56 55 54 54 54 54 55 55 56 56 56
59 58 59 59 58 58 58 57 56 56 54 56 56 55 53 53 52 52 51 52 52 55 57 56 55 55 54 54 53 53 53 52 53 53 54 54 54 55
52 53 54 55 54 55 55 55 55 56 54 52 54 49 49 51 52 49 49 50 51 53 55 55 54 54 54 53 53 52 52 51 50 51 51 52 52 53
54 54 56 56 56 56 56 54 54 54 53 52 51 49 48 47 46 47 46 47 48 50 54 54 54 53 53 52 52 51 50 49 49 49 49 49 50 51
53 53 54 54 53 53 53 53 54 53 52 50 49 49 45 45 45 44 42 43 44 46 49 51 53 53 52 52 51 50 49 48 48 49 49 48 48 49
53 53 53 49 46 49 50 51 52 51 51 48 47 47 44 41 42 46 44 46 44 43 43 45 48 48 49 51 50 48 48 47 48 48 47 48 48 48
49 51 52 49 50 49 49 48 48 46 46 46 46 45 47 47 49 46 44 40 39 42 42 42 44 43 45 47 49 48 47 47 47 46 46 46 46 47
48 48 49 51 50 52 50 49 49 49 49 47 44 45 46 48 48 45 43 42 44 43 42 40 40 41 42 43 47 46 46 46 46 45 45 45 46 46
48 48 48 48 50 47 46 46 47 49 50 50 49 47 47 48 48 47 45 44 37 37 40 39 37 38 40 41 44 45 46 46 45 44 44 44 45 45
47 48 46 47 45 45 44 42 42 44 48 48 48 47 47 47 47 45 37 36 37 35 35 35 34 35 36 38 43 45 45 46 44 44 44 43 44 44
45 46 45 44 43 43 42 41 37 40 43 44 47 48 47 46 46 45 43 37 37 33 35 35 31 32 30 33 39 42 44 45 44 43 42 42 43 46
42 43 45 42 42 42 42 40 39 42 42 43 43 44 43 41 41 42 41 40 35 35 36 36 32 31 32 30 33 39 43 44 43 42 39 39 42 43
40 42 41 41 41 41 41 41 42 42 41 39 38 38 39 38 38 36 36 36 36 36 37 34 32 32 32 30 31 36 37 41 41 40 41 40 39 41
42 41 41 40 40 40 40 40 40 38 36 35 36 36 37 37 33 33 33 33 32 33 34 33 33 32 32 32 32 33 33 35 37 36 38 39 40 40
41 41 40 39 39 38 38 38 38 37 35 35 35 37 34 33 33 33 32 32 31 29 31 32 32 32 32 32 32 32 36 32 34 35 36 36 39 41
40 39 37 36 35 35 36 37 37 36 35 34 34 34 33 32 32 32 32 32 32 30 28 29 31 32 32 32 31 34 34 33 34 33 34 33 35 38
37 35 33 33 32 33 33 33 35 35 35 33 33 34 33 32 32 32 32 32 32 31 30 29 30 30 30 32 36 33 34 32 33 32 34 33 32 36
34 34 32 32 32 33 32 32 32 34 33 33 32 33 33 32 32 31 32 32 32 32 31 31 30 31 28 28 30 34 32 32 31 31 34 35 33 34
34 32 32 32 31 31 31 31 32 33 33 33 32 32 33 32 31 31 32 32 32 31 30 31 31 32 31 29 28 29 32 31 32 31 31 33 34 36
32 31 31 30 30 30 30 29 31 31 32 32 32 32 33 32 32 32 32 32 32 30 29 29 32 33 32 32 29 27 30 32 33 33 32 32 32 32
29 29 29 29 28 28 27 28 28 30 30 31 32 32 33 33 32 33 32 31 32 31 30 31 31 31 30 32 30 27 28 30 34 35 36 34 33 31
29 29 29 28 28 28 27 27 28 28 29 30 31 32 32 32 33 34 32 32 32 31 29 29 30 31 29 29 29 28 28 29 30 31 32 36 36 35

GFSNE_sfc_temp_123.txt.gz
Temp
60 61 59 60 59 59 58 58 56 53 56 62 59 59 58 57 58 58 58 58 58 60 61 62 61 61 61 63 62 61 60 59 58 58 58 58 58 59
59 58 59 59 59 59 59 59 58 56 54 58 57 57 55 54 56 56 56 54 56 58 59 58 58 58 59 59 59 59 58 57 57 57 57 57 57 58
57 58 57 56 57 57 57 57 57 56 54 55 55 55 54 54 54 54 54 55 55 55 58 57 57 57 57 57 57 57 56 56 55 55 55 56 56 56
51 52 52 54 53 53 53 53 53 53 52 50 52 51 50 53 53 52 51 51 52 53 55 56 56 56 56 55 55 55 54 54 53 53 53 53 53 53
51 51 51 52 52 53 53 52 52 53 52 50 50 53 51 50 49 50 49 49 49 50 53 54 55 55 54 54 54 53 52 52 52 51 50 51 51 51
53 52 52 51 49 48 50 50 51 50 50 49 48 48 49 49 47 46 47 47 47 48 49 51 53 54 54 54 53 51 51 51 51 50 50 49 49 49
51 52 51 47 47 48 48 48 47 46 45 45 45 46 46 45 43 47 45 47 48 46 46 46 48 49 51 52 51 49 49 50 49 49 49 49 48 48
48 50 51 49 49 50 50 49 48 45 44 43 42 42 44 46 47 46 45 44 42 45 43 43 45 46 48 49 50 50 49 48 48 47 47 47 47 47
47 47 48 50 49 47 47 47 48 48 48 46 42 43 43 45 45 43 44 44 44 46 41 40 43 42 46 46 49 49 48 47 46 46 46 46 46 46
47 47 46 46 46 44 43 42 43 45 45 46 44 44 45 47 46 45 43 43 44 39 40 38 36 39 39 39 46 48 47 46 45 45 44 44 45 45
47 47 45 45 44 43 41 39 40 41 45 46 46 46 46 47 47 44 40 39 38 38 37 36 34 34 35 35 38 46 46 45 45 45 44 44 44 44
45 46 45 43 43 43 40 39 36 38 40 41 41 43 45 46 47 45 41 37 39 34 35 35 32 33 32 33 35 37 40 44 44 44 44 42 42 39
42 43 44 43 42 42 42 39 38 40 40 39 39 40 40 41 41 42 40 38 36 36 37 35 32 32 32 30 32 33 36 39 38 40 43 41 41 41
40 42 41 42 41 41 40 41 41 40 38 35 35 35 36 37 38 38 37 36 37 35 37 34 32 33 32 30 30 32 32 34 34 33 33 39 41 41
42 41 42 41 40 39 40 40 40 36 34 33 33 34 35 36 34 34 33 33 32 32 33 34 33 32 32 31 30 31 32 32 32 32 29 31 30 33
41 40 40 40 39 39 38 37 36 35 34 33 33 34 35 34 34 33 32 32 32 30 31 32 32 32 32 32 32 30 31 30 32 30 30 30 33 34
39 37 35 34 33 33 33 33 33 33 33 33 32 32 33 33 33 33 32 32 31 31 29 30 31 32 32 32 31 31 31 30 31 30 30 29 29 32
35 33 33 32 31 31 31 31 32 33 32 32 32 32 32 32 33 32 32 31 31 31 30 29 29 29 30 31 34 30 30 30 30 30 31 28 28 31
33 32 31 31 31 31 31 30 30 31 32 31 31 31 32 32 33 32 31 31 31 32 31 30 29 30 28 26 29 33 29 29 29 29 29 29 29 30
32 31 31 31 31 29 29 29 28 29 29 30 30 31 32 32 32 32 32 31 31 31 30 30 29 31 30 28 27 27 33 29 30 29 28 30 32 38
31 31 31 30 29 28 28 27 27 27 28 28 29 29 31 31 32 32 32 33 33 30 28 29 30 34 31 31 26 26 29 33 33 30 30 28 28 29
30 30 30 30 29 28 27 27 26 27 27 27 27 28 30 32 31 32 32 31 31 30 30 30 31 30 29 29 26 25 27 30 34 36 36 34 30 26
30 30 29 29 28 27 26 26 26 26 27 27 27 28 30 30 32 32 32 31 31 29 29 28 29 30 29 29 27 26 27 28 29 29 31 36 36 37

GFSNE_sfc_temp_126.txt.gz
Temp
61 60 59 59 59 59 58 58 56 53 55 58 57 58 57 57 57 57 56 57 58 59 60 59 60 61 62 62 63 63 65 64 63 62 60 60 59 59
58 58 58 59 58 58 58 58 58 56 53 57 57 57 56 55 56 55 54 54 56 58 58 58 58 58 60 60 60 61 62 61 61 60 60 60 59 59
56 57 54 55 54 54 54 55 55 55 53 53 54 54 54 54 54 54 52 51 52 55 57 57 57 57 58 58 58 60 60 60 59 59 59 59 59 58
50 51 50 52 52 53 52 51 51 51 49 47 50 50 51 51 50 48 50 50 50 53 54 54 55 55 56 57 57 57 57 57 57 57 56 57 57 56
50 50 50 49 47 48 49 48 48 49 48 46 45 47 48 49 48 48 49 48 50 51 53 53 53 54 55 56 56 55 54 54 54 53 53 54 54 54
50 48 47 46 46 44 45 44 44 42 43 43 43 43 43 45 43 43 44 44 46 48 50 51 52 52 53 54 55 53 52 52 52 52 51 51 51 51
47 48 46 45 48 47 45 42 42 40 39 39 41 42 42 43 43 44 43 45 46 45 46 45 45 45 48 52 52 51 51 51 51 51 51 50 49 49
43 43 45 45 45 47 47 46 45 39 38 39 37 39 41 42 42 41 41 40 38 46 42 44 41 44 45 47 51 52 51 51 50 50 49 48 48 47
41 41 43 45 42 41 42 43 43 44 44 38 35 36 36 39 39 39 40 40 40 44 42 40 41 43 45 46 50 50 50 50 49 49 47 47 47 46
40 40 39 39 40 40 38 37 38 38 39 41 37 39 41 41 39 40 39 41 42 42 38 37 38 40 41 42 46 48 49 49 48 48 47 46 44 44
41 41 40 38 43 43 38 36 37 39 44 44 44 45 45 45 45 41 38 36 35 38 38 36 39 35 34 36 38 44 47 48 48 47 46 44 43 43
38 40 45 40 43 43 36 33 33 36 38 39 38 37 41 40 43 40 38 35 34 35 36 34 33 33 34 33 34 36 39 46 46 46 45 43 42 39
36 36 38 43 42 42 41 34 36 40 38 36 35 37 38 39 38 39 38 36 34 34 38 34 33 32 32 32 32 33 35 37 38 40 41 39 37 40
35 36 36 41 42 41 38 41 41 39 31 33 33 33 33 34 35 36 36 35 35 34 35 35 33 33 32 30 30 32 32 32 33 32 32 34 38 40
37 39 41 41 40 37 39 40 39 30 29 31 31 31 32 34 34 34 34 34 33 32 32 33 33 32 32 32 30 30 31 31 32 32 31 31 31 32
38 34 38 39 39 37 35 33 31 29 31 31 31 32 33 33 33 34 33 33 32 27 28 32 32 32 32 32 30 30 31 29 31 31 31 30 32 32
37 31 29 29 28 28 29 29 29 31 31 31 30 30 31 32 32 33 33 31 30 30 31 21 26 28 31 32 26 30 29 30 31 30 30 28 29 31
32 26 26 25 25 26 28 29 29 31 30 30 30 30 29 30 31 33 33 31 29 27 28 19 21 26 29 29 34 29 27 29 29 30 30 24 26 30
28 26 26 25 25 26 29 28 26 29 29 28 28 29 29 30 31 31 31 31 28 28 31 23 20 24 24 24 28 33 25 27 28 26 27 26 23 27
27 26 25 25 25 27 28 27 27 27 27 27 27 28 27 28 29 30 31 30 28 25 29 24 22 24 25 23 25 27 34 25 27 24 28 31 33 37
28 26 28 29 29 28 28 27 27 26 27 26 26 27 26 26 28 30 31 33 33 30 28 23 26 34 29 29 25 26 30 35 32 25 29 28 27 29
31 30 30 30 28 28 27 26 25 24 25 25 26 25 25 27 27 29 30 30 30 28 24 30 31 28 29 28 24 25 28 31 34 36 36 34 28 23
30 30 29 29 29 28 27 26 24 22 23 25 25 24 25 25 27 28 30 31 29 26 24 24 27 28 29 27 27 26 27 28 30 30 32 37 37 37

GFSNE_sfc_temp_129.txt.gz
Temp
61 60 61 61 60 60 58 57 55 51 52 56 56 58 57 57 56 57 56 56 58 59 59 59 58 59 59 60 61 62 64 63 64 65 64 63 62 62
60 60 59 58 58 58 57 57 57 56 53 56 55 54 55 55 55 55 55 53 55 56 56 56 56 56 57 57 58 59 60 61 63 64 64 63 62 61
57 57 53 54 53 53 53 53 51 51 49 51 53 53 53 52 53 53 52 50 50 54 55 55 55 55 55 55 56 57 58 59 61 63 63 63 62 61
50 50 50 51 49 49 49 49 49 49 48 47 48 48 49 50 50 47 47 48 47 52 54 55 55 55 55 55 55 55 55 57 57 60 61 60 60 60
48 47 47 48 46 46 46 46 45 47 46 44 43 44 43 43 43 44 44 44 47 49 52 53 53 54 54 54 54 54 53 54 56 56 57 57 57 58
47 47 47 46 45 45 44 43 43 41 40 39 39 38 39 41 41 40 40 42 42 47 49 51 51 51 52 52 52 51 51 52 54 55 54 53 53 54
45 46 44 45 47 46 42 40 39 38 38 37 36 36 36 36 36 38 38 39 40 41 42 42 44 44 44 48 48 49 50 52 53 54 54 53 51 51
42 42 42 43 44 45 45 44 43 37 35 34 33 33 34 34 36 36 38 36 34 39 37 40 40 41 44 44 47 49 50 51 51 52 52 52 50 49
40 40 41 42 40 39 42 42 41 43 43 36 32 32 33 35 35 35 36 35 36 41 40 38 41 39 42 44 48 49 49 49 50 50 51 50 50 49
39 38 38 38 40 39 37 35 35 36 37 39 35 38 40 41 39 39 38 38 37 38 38 35 38 37 41 40 46 46 47 47 48 49 50 49 48 47
39 38 37 36 43 43 36 33 33 34 42 43 43 43 42 42 42 39 36 34 34 36 37 36 36 36 37 40 37 42 43 44 45 47 49 48 47 45
36 37 43 40 43 43 35 31 29 31 35 35 34 37 40 40 42 39 36 33 33 33 36 34 36 33 34 33 34 35 35 41 44 48 47 46 44 38
33 33 35 42 42 42 42 32 34 39 35 30 29 33 36 36 36 37 36 35 32 32 36 35 33 33 32 33 33 33 33 35 36 38 44 42 39 37
32 33 34 41 42 41 38 40 41 37 30 28 31 32 32 32 33 34 35 35 35 33 35 33 31 33 32 33 31 33 32 33 33 33 33 36 36 37
35 37 41 41 40 36 38 39 37 29 27 30 30 31 32 33 33 33 34 34 33 34 34 32 32 32 32 32 32 31 32 32 32 32 31 32 32 31
36 32 37 38 38 36 33 32 30 28 30 30 30 31 31 31 31 33 32 33 32 30 26 26 28 32 31 32 32 30 31 28 30 30 30 30 32 33
37 31 29 28 28 28 28 28 28 27 30 29 28 27 29 29 30 32 32 32 30 29 29 29 29 30 32 31 27 24 28 28 29 29 30 28 30 30
35 32 26 25 25 25 26 27 29 29 29 28 27 27 26 27 28 30 32 31 30 28 29 29 27 28 29 30 33 25 28 29 29 30 29 25 26 30
33 32 25 25 25 25 24 28 27 28 28 26 26 26 27 26 27 27 29 30 30 28 29 30 24 25 22 23 28 33 25 27 27 29 29 27 26 30
32 29 25 25 24 26 28 27 27 27 26 26 26 26 26 25 25 25 27 28 30 28 29 29 22 23 24 24 24 28 33 24 25 26 27 30 32 37
32 30 30 29 29 29 28 27 26 26 25 17 22 23 24 23 24 25 26 30 32 28 26 29 25 34 28 28 25 27 30 35 31 26 28 27 27 29
32 31 30 30 29 28 28 27 26 23 20 20 21 23 23 23 23 24 25 25 28 28 25 24 31 29 28 26 24 26 28 30 34 36 36 34 28 25
30 30 29 30 29 28 28 19 19 23 20 21 20 21 22 22 24 25 25 26 27 27 24 24 26 28 27 26 27 26 27 28 29 30 32 37 37 36

GFSNE_sfc_temp_135.txt.gz
Temp
60 60 59 59 60 60 60 59 57 53 55 55 53 54 54 54 53 54 53 53 55 56 56 56 56 56 56 57 57 58 58 58 59 60 61 63 64 65
59 59 59 59 60 58 59 59 58 56 53 55 50 51 50 52 50 50 50 51 52 54 55 55 54 54 55 55 56 56 57 57 58 58 58 60 61 63
54 55 54 54 54 53 52 52 50 51 53 50 50 49 47 46 47 47 48 48 48 51 53 53 53 54 54 54 54 55 55 56 56 56 57 58 58 59
49 49 47 49 47 48 47 45 46 46 47 45 45 43 44 44 44 44 45 46 44 48 50 51 51 52 52 52 52 52 52 53 53 53 54 55 56 57
46 46 46 46 44 44 44 43 43 44 43 42 41 42 42 42 41 41 40 40 43 46 47 48 49 50 50 51 51 50 50 50 50 51 52 53 53 55
45 45 45 44 43 42 41 41 41 40 38 38 38 38 38 39 37 35 35 37 37 42 43 45 47 47 48 48 48 48 47 49 50 51 51 51 51 52
44 44 43 44 45 44 41 39 38 36 35 35 34 34 34 33 32 34 35 37 37 36 36 39 39 40 40 44 44 45 48 49 49 49 50 50 50 51
38 38 40 40 43 44 44 44 41 35 33 32 31 30 31 32 33 34 35 34 32 36 36 37 37 37 39 39 45 46 47 48 48 47 48 49 49 49
37 38 39 41 38 36 40 40 40 42 41 33 31 31 30 33 36 34 33 34 34 38 36 34 38 36 38 40 44 45 46 46 47 47 47 47 48 48
36 35 35 35 38 35 34 32 32 34 35 37 33 33 34 35 36 37 35 35 35 34 36 31 37 35 36 38 44 44 45 46 45 45 45 46 47 48
35 35 35 35 43 42 33 32 31 32 39 40 39 39 40 41 40 36 30 30 29 31 33 33 32 34 36 35 35 43 45 44 43 43 43 45 45 46
31 33 42 37 42 42 31 30 29 30 30 30 30 31 33 34 39 36 33 28 29 29 33 31 33 32 30 29 36 39 35 39 41 40 42 43 43 39
31 31 32 41 42 42 38 31 33 31 31 28 27 28 29 30 30 30 32 31 29 29 34 33 32 32 31 31 33 35 35 36 33 34 38 39 41 40
32 31 32 40 40 40 36 40 38 33 28 27 27 26 26 26 27 27 29 32 33 32 34 33 31 31 29 28 29 33 34 36 31 32 33 36 38 38
32 35 39 39 38 35 38 38 34 28 26 25 25 24 24 25 26 24 26 28 31 33 34 33 32 31 30 28 27 30 31 33 29 31 25 26 30 26
36 33 36 36 36 35 33 32 30 27 26 23 23 23 20 18 21 21 22 26 28 28 27 29 30 30 27 27 29 28 30 28 26 26 28 26 27 29
34 31 31 32 30 28 28 27 27 26 26 24 20 21 23 21 24 19 15 23 24 26 27 29 25 28 29 28 27 29 29 29 23 29 24 23 26 28
33 29 29 31 30 29 27 25 25 27 28 28 24 17 20 21 22 22 16 24 24 26 25 28 26 23 21 27 32 29 28 25 21 23 23 19 22 28
29 28 28 30 29 29 26 23 26 29 29 26 15 13 17 17 20 19 17 21 23 23 24 27 26 24 16 15 25 34 27 27 25 23 25 24 22 28
28 27 26 27 29 28 27 28 28 28 26 25 19 12 10 10 20 19 18 20 21 24 24 25 26 25 21 19 21 24 32 24 25 21 25 29 30 36
28 27 27 25 28 28 29 28 27 26 25 21 10 9 14 13 19 19 20 25 26 22 21 22 26 35 29 25 21 24 27 33 32 22 27 27 27 29
28 26 26 26 29 28 27 27 26 26 15 14 14 13 15 15 18 19 20 20 21 22 22 24 26 23 21 22 20 21 25 28 32 34 34 32 27 25
27 27 26 29 29 28 28 27 24 19 16 16 15 15 15 17 19 20 21 22 22 21 22 23 24 21 22 22 24 22 23 25 29 30 32 35 35 34

GFSNE_sfc_temp_141.txt.gz
Temp
58 59 59 61 62 63 61 60 55 53 55 56 53 51 49 49 50 50 48 51 52 52 53 52 52 52 52 53 53 55 57 57 57 58 59 60 61 61
57 57 58 59 60 59 59 59 58 56 52 55 50 47 48 48 49 48 48 48 48 50 50 51 51 51 52 53 54 54 54 54 55 56 57 58 59 59
53 53 51 52 51 50 51 51 49 52 52 48 47 46 44 44 45 46 45 44 44 45 48 49 50 51 51 51 52 52 53 53 53 54 54 55 56 56
49 49 48 49 47 47 47 46 46 46 49 46 44 43 41 42 43 42 43 44 43 45 47 48 49 49 49 49 50 50 50 51 51 51 52 53 54 54
48 48 48 46 44 44 44 44 44 45 44 43 40 42 41 40 41 44 44 43 45 45 46 46 47 47 47 47 48 48 47 48 49 50 50 51 52 52
45 45 46 46 44 43 43 43 43 42 42 40 39 38 38 39 39 39 39 42 41 44 44 45 45 45 45 46 46 45 46 47 48 49 50 50 50 50
43 44 45 45 45 45 43 41 42 40 38 37 37 38 38 37 36 38 37 39 42 42 42 43 42 43 43 44 44 44 46 46 48 49 49 49 49 49
42 42 43 43 45 45 44 44 43 41 39 37 36 36 36 36 38 37 36 36 35 42 38 38 42 41 42 44 43 44 45 46 47 47 48 47 47 47
41 41 41 41 40 40 41 41 42 42 40 39 36 36 36 37 37 36 36 35 35 38 37 36 41 39 43 44 43 43 45 46 46 46 45 45 45 45
40 40 40 40 40 38 38 38 38 39 39 39 38 38 38 39 38 38 36 35 36 37 39 32 39 38 41 42 43 42 44 44 44 44 44 44 43 43
39 39 40 40 42 40 38 36 36 37 39 39 39 39 39 39 40 37 33 31 32 35 37 33 36 36 38 40 42 41 43 42 42 43 43 42 42 42
38 39 41 40 43 40 38 36 35 36 36 36 36 36 36 36 36 35 32 28 27 30 36 32 33 34 32 39 39 41 41 41 41 41 41 40 40 39
37 37 39 41 42 41 38 37 37 36 35 34 34 35 34 34 34 34 33 30 27 27 35 34 32 32 32 32 36 38 39 38 39 39 39 39 39 39
37 37 38 40 40 41 40 38 39 35 34 33 32 32 31 31 31 31 31 32 33 30 33 32 29 30 30 30 30 36 37 38 38 35 35 35 35 36
37 37 37 39 39 37 38 39 37 34 32 31 30 29 29 29 29 29 30 30 29 29 32 31 31 31 31 29 29 31 33 35 36 33 34 33 33 33
38 39 38 37 36 36 36 36 34 33 32 30 29 29 29 28 27 28 25 26 27 30 32 32 31 30 29 31 31 29 33 29 34 34 32 32 35 37
36 35 35 33 33 33 33 33 32 32 30 30 29 27 27 27 26 27 25 24 24 25 27 30 31 31 31 29 27 31 31 31 33 31 30 28 33 36
35 32 32 33 32 33 32 31 31 31 30 30 29 27 25 24 24 25 24 23 22 24 25 27 28 28 31 32 33 31 31 31 33 31 30 28 30 36
35 33 33 33 32 32 31 31 30 31 31 29 28 27 25 23 23 23 23 22 23 24 26 27 26 25 24 23 33 36 30 32 31 30 31 31 29 34
36 34 33 32 32 31 31 30 30 30 29 28 27 26 22 21 21 22 22 20 22 25 25 26 25 25 23 24 26 31 33 30 30 30 30 32 35 36
34 32 33 32 31 31 31 30 30 29 29 28 27 23 22 20 21 21 21 24 25 23 21 24 26 30 27 28 26 30 34 34 33 31 31 30 30 32
33 32 32 32 31 30 29 29 28 30 29 28 26 24 23 22 21 21 22 21 22 23 22 24 26 27 26 27 26 27 29 33 35 35 35 33 31 28
33 33 32 31 30 29 28 28 28 29 29 28 25 24 22 21 23 23 23 22 22 22 23 23 25 27 26 27 27 28 28 30 32 33 33 34 34 34